Location: Dal�� Lhota
(48.7500°N, 14.0167°E)
Time: 17:21:20
(UTC+00:00)

Explorer 7 - Pass Details

Date: 09 August 2021
Orbit: 484 x 676 km, 50.3° (Epoch: 20 September)

Event Time Altitude Azimuth Distance (km) Brightness Sun altitude
Rises 02:29:33 0° 251° (WSW) 2,541 - -11.7°
Reaches altitude 10° 02:31:42 10° 251° (WSW) 1,664 - -11.4°
Exits shadow 02:32:29 16° 251° (WSW) 1,349 8.2 -11.3°
Maximum altitude 02:35:27 86° 163° (SSE) 496 6.5 -11.0°
Drops below altitude 10° 02:39:18 10° 75° (ENE) 1,711 10.5 -10.5°
Sets 02:41:32 0° 75° (ENE) 2,620 11.7 -10.2°
